2023/04/23 00:00:00, 5.8, 3.9
2023/04/23 00:10:00, 6.4, 3.7
2023/04/23 00:20:00, 6.7, 3.5
2023/04/23 00:30:00, 6.8, 3.5
2023/04/23 00:40:00, 5.3, 3.5
2023/04/23 00:50:00, 5.8, 3.5
2023/04/23 01:00:00, 5.8, 3.4
2023/04/23 01:10:00, 5.4, 3.3
2023/04/23 01:20:00, 5.7, 3.2
2023/04/23 01:30:00, 6.9, 3.4
2023/04/23 01:40:00, 8.3, 3.2
2023/04/23 01:50:00, 8.7, 3.2
2023/04/23 02:00:00,11.1, 3.5
2023/04/23 02:10:00,10.3, 3.4
2023/04/23 02:20:00,11.1, 3.0
2023/04/23 02:30:00,13.3, 2.5
2023/04/23 02:40:00,13.8, 2.6
2023/04/23 02:50:00,15.7, 2.4
2023/04/23 03:00:00,19.1, 2.3
2023/04/23 03:10:00,20.6, 2.4
2023/04/23 03:20:00,21.6, 2.3
2023/04/23 03:30:00,22.6, 2.4
2023/04/23 03:40:00,24.1, 2.1
2023/04/23 03:50:00,25.3, 2.4
2023/04/23 04:00:00,29.1, 2.0
2023/04/23 04:10:00,32.3, 2.2
2023/04/23 04:20:00,34.4, 2.1
2023/04/23 04:30:00,35.4, 1.8
2023/04/23 04:40:00,35.8, 1.6
2023/04/23 04:50:00,36.1, 1.5
2023/04/23 05:00:00,36.1, 2.1
2023/04/23 05:10:00,36.0, 1.6
2023/04/23 05:20:00,35.9, 1.4
2023/04/23 05:30:00,35.9, 1.6
2023/04/23 05:40:00,35.9, 1.6
2023/04/23 05:50:00,36.0, 1.7
2023/04/23 06:00:00,35.9, 2.4
2023/04/23 06:10:00,36.0, 3.2
2023/04/23 06:20:00,35.8, 3.6
2023/04/23 06:30:00,35.9, 3.4
2023/04/23 06:40:00,35.9, 3.9
2023/04/23 06:50:00,35.8, 4.4
2023/04/23 07:00:00,35.9, 5.4
2023/04/23 07:10:00,35.1, 6.8
2023/04/23 07:20:00,28.6, 8.2
2023/04/23 07:30:00,26.5, 9.6
2023/04/23 07:40:00,---,11.6
2023/04/23 07:50:00, 5.8,12.5
2023/04/23 08:00:00, 3.2,15.1
2023/04/23 08:10:00, 2.9,14.5
2023/04/23 08:20:00, 2.0,15.3
2023/04/23 08:30:00, 4.5,15.8
2023/04/23 08:40:00, 5.5,16.7
2023/04/23 08:50:00,22.7,16.7
2023/04/23 09:00:00,23.7,16.7
2023/04/23 09:10:00,23.0,16.2
2023/04/23 09:20:00,22.5,18.8
2023/04/23 09:30:00,20.7,18.1
2023/04/23 09:40:00,17.3,18.6
2023/04/23 09:50:00,15.6,19.4
2023/04/23 10:00:00,21.9,19.7
2023/04/23 10:10:00,26.3,20.2
2023/04/23 10:20:00,26.8,20.9
2023/04/23 10:30:00,27.7,20.4
2023/04/23 10:40:00,27.3,19.1
2023/04/23 10:50:00,26.5,19.3
2023/04/23 11:00:00,---,18.8
2023/04/23 11:10:00,19.3,18.4
2023/04/23 11:20:00, 9.6,18.6
2023/04/23 11:30:00,11.2,18.6
2023/04/23 11:40:00,18.2,18.5
2023/04/23 11:50:00,15.8,18.7
2023/04/23 12:00:00,13.4,18.3
2023/04/23 12:10:00,15.7,17.0
2023/04/23 12:20:00,15.5,17.8
2023/04/23 12:30:00,21.6,18.0
2023/04/23 12:40:00,10.4,18.1
2023/04/23 12:50:00,11.4,19.0
2023/04/23 13:00:00, 5.0,19.5
2023/04/23 13:10:00, 4.7,19.8
2023/04/23 13:20:00, 4.3,19.2
2023/04/23 13:30:00, 1.4,20.2
2023/04/23 13:40:00, 5.5,20.1
2023/04/23 13:50:00, 9.0,19.7
2023/04/23 14:00:00, 7.4,19.4
2023/04/23 14:10:00, 8.2,20.1
2023/04/23 14:20:00,14.4,19.6
2023/04/23 14:30:00,20.8,19.3
2023/04/23 14:40:00,23.2,18.6
2023/04/23 14:50:00,12.3,18.9
2023/04/23 15:00:00, 5.5,17.3
2023/04/23 15:10:00, 3.2,16.7
2023/04/23 15:20:00, 2.8,16.4
2023/04/23 15:30:00, 0.3,15.8
2023/04/23 15:40:00, 0.8,15.9
2023/04/23 15:50:00,---,15.1
2023/04/23 16:00:00, 1.3,14.6
2023/04/23 16:10:00, 5.3,14.7
2023/04/23 16:20:00,10.4,14.3
2023/04/23 16:30:00, 5.0,14.5
2023/04/23 16:40:00, 3.5,14.5
2023/04/23 16:50:00, 5.4,13.6
2023/04/23 17:00:00, 2.8,13.4
2023/04/23 17:10:00, 8.6,12.7
2023/04/23 17:20:00, 7.1,12.8
2023/04/23 17:30:00, 9.0,12.4
2023/04/23 17:40:00, 9.5,12.3
2023/04/23 17:50:00,12.7,12.0
2023/04/23 18:00:00,14.2,11.9
2023/04/23 18:10:00,13.1,11.8
2023/04/23 18:20:00,14.5,11.7
2023/04/23 18:30:00,15.1,11.4
2023/04/23 18:40:00,16.1,11.3
2023/04/23 18:50:00,15.6,11.0
2023/04/23 19:00:00,15.1,11.0
2023/04/23 19:10:00,12.5,10.9
2023/04/23 19:20:00, 7.2,11.0
2023/04/23 19:30:00, 5.9,11.1
2023/04/23 19:40:00, 5.3,10.8
2023/04/23 19:50:00, 6.3,10.6
2023/04/23 20:00:00, 7.9,10.7
2023/04/23 20:10:00,14.6,10.6
2023/04/23 20:20:00,15.1,10.5
2023/04/23 20:30:00, 8.9,10.5
2023/04/23 20:40:00, 6.3,10.6
2023/04/23 20:50:00, 2.8,10.6
2023/04/23 21:00:00, 3.6,10.7
2023/04/23 21:10:00, 1.3,10.6
2023/04/23 21:20:00, 1.2,10.2
2023/04/23 21:30:00, 1.5,10.2
2023/04/23 21:40:00, 0.5,10.4
2023/04/23 21:50:00, 0.9,10.5
2023/04/23 22:00:00, 0.6,10.3
2023/04/23 22:10:00, 1.0,10.3
2023/04/23 22:20:00, 0.6,10.2
2023/04/23 22:30:00, 0.6,10.4
2023/04/23 22:40:00, 0.8,10.2
2023/04/23 22:50:00, 0.6,10.2
2023/04/23 23:00:00, 0.8,10.1
2023/04/23 23:10:00, 1.4,10.2
2023/04/23 23:20:00, 1.9,10.0
2023/04/23 23:30:00, 4.2, 9.7
2023/04/23 23:40:00, 8.0, 9.6
2023/04/23 23:50:00,11.5, 9.3
